(247) Eukrate
ephemeris date magn radius delta ra dec elong phase
Today26 Aug 202614.53.371 AU3.905 AU13h02m-21°09'51.5°13.6°
Opposition8 Jun 202713.33.324 AU2.437 AU16h45m-57°00'145.6°9.9°
(247) Eukrate - 2026-08-26
astro.vanbuitenen.nl


 
-1 year
-1 month
-1 day
Now
+1 day
+1 month
+1 year

The interactive orbit chart above shows the body's path through the solar system and its position at the given date. Green and blue lines are shown perpendicular to the ecliptic plane: Green if the path is above the ecliptic plane, blue if it is below. (Left-click and drag to rotate the view; Right-click and drag to move the view; Use scroll wheel to zoom in our out.)

The orbital elements of Eukrate are:

            e (Eccentricity)                : 0.2462927
            a (Semimajor axis)              : 2.7392030
            i (Inclination)                 : 24.95468
            Ω (Longitude of ascending node) : 0.01466
            ω (Argument of perihelion)      : 55.25752
            M (Mean anomaly)                : 137.62035
            Epoch                           : 2026 Jun 09

            L (Longitude of perihelion)     : 52.60069
            B (Latitude of perihelion)      : 20.28471
            P (Orbital period in years)     : 4.53            
        

The light curve chart below shows the estimated development of the minor planet's magnitude.


The all-sky chart below shows the path of the minor planet over the same period as the light curve. The current position is marked yellow.





The following chart shows the path of the minor planet in the next few days. The field of view is optimized for (~10x50) binoculars and finderscopes.




Ephemerides:
Date       Time       RA (2000)    DEC (2000)    delta   radius  elong  phase   PA    magn
2026-08-26 00:00 UT   13 02 57.3   -21 09 13     3.905    3.371   51.5   13.6   124   14.5 
2026-08-26 03:31 UT   13 03 06.6   -21 10 11     3.907    3.371   51.5   13.6   124   14.5 
2026-08-27 00:00 UT   13 04 01.3   -21 15 51     3.917    3.372   50.9   13.4   124   14.5 
2026-08-28 00:00 UT   13 05 05.8   -21 22 31     3.928    3.373   50.2   13.3   124   14.5 
2026-08-29 00:00 UT   13 06 10.7   -21 29 14     3.939    3.373   49.6   13.2   125   14.5 
2026-08-30 00:00 UT   13 07 16.0   -21 35 59     3.950    3.374   48.9   13.0   125   14.5 
2026-08-31 00:00 UT   13 08 21.7   -21 42 47     3.961    3.375   48.3   12.9   125   14.5 
2026-09-01 00:00 UT   13 09 27.7   -21 49 37     3.972    3.375   47.7   12.8   125   14.5 
2026-09-02 00:00 UT   13 10 34.2   -21 56 30     3.982    3.376   47.0   12.6   126   14.5 
2026-09-03 00:00 UT   13 11 41.0   -22 03 25     3.993    3.377   46.4   12.5   126   14.5 
2026-09-04 00:00 UT   13 12 48.2   -22 10 22     4.003    3.377   45.7   12.3   126   14.5 
2026-09-05 00:00 UT   13 13 55.8   -22 17 22     4.014    3.378   45.1   12.2   127   14.5 
2026-09-06 00:00 UT   13 15 03.7   -22 24 24     4.024    3.379   44.5   12.1   127   14.5 
2026-09-07 00:00 UT   13 16 12.0   -22 31 28     4.034    3.379   43.8   11.9   127   14.5 
2026-09-08 00:00 UT   13 17 20.7   -22 38 34     4.044    3.380   43.2   11.8   127   14.5 
2026-09-09 00:00 UT   13 18 29.7   -22 45 43     4.053    3.381   42.6   11.6   128   14.5 
2026-09-10 00:00 UT   13 19 39.1   -22 52 53     4.063    3.381   41.9   11.5   128   14.5 
2026-09-11 00:00 UT   13 20 48.9   -23 00 06     4.072    3.382   41.3   11.3   128   14.5 
2026-09-12 00:00 UT   13 21 59.0   -23 07 20     4.082    3.383   40.7   11.2   129   14.5 
2026-09-13 00:00 UT   13 23 09.4   -23 14 37     4.091    3.383   40.1   11.0   129   14.5 
2026-09-14 00:00 UT   13 24 20.2   -23 21 55     4.100    3.384   39.4   10.9   129   14.5 
2026-09-15 00:00 UT   13 25 31.3   -23 29 16     4.109    3.385   38.8   10.7   130   14.5 
2026-09-16 00:00 UT   13 26 42.7   -23 36 38     4.118    3.385   38.2   10.6   130   14.5 
2026-09-17 00:00 UT   13 27 54.4   -23 44 02     4.126    3.386   37.6   10.4   130   14.5 
2026-09-18 00:00 UT   13 29 06.5   -23 51 28     4.135    3.386   37.0   10.3   131   14.5 
2026-09-19 00:00 UT   13 30 18.9   -23 58 55     4.143    3.387   36.4   10.1   131   14.5 
2026-09-20 00:00 UT   13 31 31.5   -24 06 24     4.151    3.387   35.8   10.0   132   14.5 
2026-09-21 00:00 UT   13 32 44.5   -24 13 54     4.159    3.388   35.2    9.8   132   14.5 
2026-09-22 00:00 UT   13 33 57.8   -24 21 26     4.167    3.389   34.6    9.7   132   14.5 
2026-09-23 00:00 UT   13 35 11.4   -24 28 60     4.175    3.389   34.0    9.5   133   14.5 
2026-09-24 00:00 UT   13 36 25.3   -24 36 35     4.182    3.390   33.4    9.4   133   14.5 


    Terminology:
            
    delta:  distance between minor planet and earth in AU
    radius: distance between minor planet and sun in AU
    magn:   magnitude (brightness) estimate    
    ra:     right ascension in hours (24h = 360deg)
    dec:    declination in degrees
    elong:  elongation in degrees (angle sun-earth-minor planet)    
    phase:  phase angle in degrees (angle sun-minor planet-earth)        
    AU:     Astronomical Unit (mean distance between earth and sun: 149597870.7 km
    

Orbital elements provided by the MPC (Minor Planet Center).
Calculations by a modified version of AAPlus, a C# implementation of the AA+ project by PJ Naughter from the algorithms presented in the book "Astronomical Algorithms" by Jean Meeus.
NGC2000 dso catalog and star labels from VizieR as provided by the Strasbourg astronomical Data Center.
Tycho2 catalog from the ESO archive.